Location: Pl�tzky
(52.0521°N, 11.8020°E)
Time: 19:36:40
(UTC+00:00)

Meteor 2-20 Rocket - Pass Details

Date: 22 November 2019
Orbit: 941 x 959 km, 82.5° (Epoch: 14 December)

Event Time Altitude Azimuth Distance (km) Brightness Sun altitude
Rises 16:07:35 0° 178° (S) 3,613 7.8 -8.3°
Reaches altitude 10° 16:10:04 10° 176° (S) 2,674 7.0 -8.6°
Maximum altitude 16:16:07 67° 96° (E) 1,037 4.5 -9.5°
Drops below altitude 10° 16:22:15 10° 15° (NNE) 2,702 6.5 -10.4°
Sets 16:24:46 0° 13° (NNE) 3,654 7.2 -10.7°
